[[{"header":{"parameterUnit":"m.s-1","parameterCategory":1,"la1":30.2991,"la2":30.254,"lo1":-89.0895,"lo2":-89.0444,"dy":0.0017,"dx":0.0017,"nx":28,"ny":28,"refTime":"2025-12-27T03:00:00:Z","depth":0,"parameterNumber":2,"parameterNumberName":"U-component_of_WINDS"},"data":[0,0,0,0,0,0,0,0,0,0,0,0,0,0,0,0,0,0,0,0,0,0,0,0,0,0,0,0,0,0,0,0,0,0,0,0,0,0,0,0,0,0,0,0,0,0,0,0,0,0,0,0,0,0,0,0,0,0,1.6274,1.6274,0,1.632,1.632,1.6321,1.631,1.6309,1.6308,1.6308,1.6357,1.6359,1.6361,0,0,0,0,0,0,0,0,0,0,0,0,0,1.6179,1.6181,1.6274,1.6274,1.6275,1.632,1.632,1.6321,1.631,1.6309,1.6308,1.6307,1.6356,1.6359,1.6361,0,0,0,0,0,0,0,0,0,0,0,0,0,1.6222,1.6181,1.6274,1.6275,1.6276,1.632,1.632,1.6321,1.6311,1.6309,1.6308,1.6307,1.6355,1.6358,1.6362,1.6408,0,0,1.6371,1.6373,0,0,0,0,0,0,0,0,1.622,1.6226,1.6274,1.6275,1.6276,1.6308,1.6305,1.635,1.6311,1.6297,1.6308,1.6306,1.6342,1.6346,1.6358,1.641,1.6412,1.6372,1.6374,1.6375,1.6376,0,0,0,0,0,0,0,1.6217,1.6224,1.6292,1.6275,1.6276,1.6274,1.6279,1.6314,1.6327,1.6298,1.6298,1.6303,1.6342,1.6355,1.6359,1.6413,1.6372,1.6375,1.6376,1.6378,1.6507,1.6508,0,0,0,0,0,0,1.6213,1.6221,1.6291,1.6293,1.6244,1.6277,1.6282,1.6299,1.6326,1.6329,1.6304,1.6303,1.635,1.6355,1.636,1.6417,1.6375,1.6378,1.638,1.6505,1.6507,1.6509,0,0,0,0,0,0,1.6211,1.6219,1.6289,1.6257,1.6266,1.628,1.6299,1.63,1.6313,1.633,1.6333,1.6315,1.6349,1.6356,1.6396,1.6418,1.6379,1.6382,1.6504,1.6506,1.6508,1.653,0,0,0,0,0,0,1.6208,1.6219,1.6236,1.6258,1.6268,1.6323,1.63,1.6302,1.6318,1.6316,1.6341,1.6344,1.6348,1.6391,1.6399,1.6422,1.6385,1.6502,1.6505,1.6507,1.6527,1.6532,1.6537,0,0,0,0,0,1.6205,1.624,1.6237,1.6245,1.6289,1.6324,1.633,1.6334,1.632,1.6338,1.6349,1.6343,1.6415,1.6396,1.6405,1.6428,1.65,1.6504,1.6507,1.6525,1.6531,1.6537,0,0,0,0,0,0,1.6221,1.6243,1.6239,1.6283,1.6302,1.6322,1.6345,1.6341,1.6365,1.6362,1.6367,1.6373,1.6414,1.6425,1.6404,1.6475,1.6456,1.6461,1.6466,1.6472,1.6477,1.6474,1.6388,0,0,0,0,0,1.6229,1.6255,1.6274,1.631,1.632,1.6331,1.6346,1.6348,1.6368,1.6376,1.639,1.6411,1.6438,1.6456,1.6482,1.6529,1.6534,1.655,1.6555,1.6558,1.6563,1.6589,1.6596,1.652,1.652,1.652,0,0,1.6248,1.6263,1.6279,1.6314,1.6329,1.6356,1.6338,1.6367,1.6388,1.6381,1.6419,1.6431,1.6454,1.6498,1.6518,1.6509,1.6585,1.6563,1.6566,1.6568,1.6594,1.6601,1.6607,1.6522,1.6522,1.6522,0,0,1.6294,1.6308,1.634,1.6356,1.6378,1.6385,1.6393,1.6415,1.6422,1.6461,1.6456,1.6481,1.6528,1.6545,1.6559,1.6613,1.6609,1.6622,1.6648,1.6673,1.6679,1.6684,1.6704,1.6711,1.6626,1.6626,1.6626,0,1.6314,1.6355,1.6358,1.6388,1.6404,1.6398,1.6431,1.6446,1.6476,1.6488,1.6477,1.6535,1.6551,1.6599,1.6612,1.6624,1.6633,1.6619,1.6678,1.6683,1.6688,1.6707,1.6714,1.6628,1.6628,1.6627,1.6627,0,1.6378,1.6406,1.643,1.6458,1.6477,1.6508,1.6517,1.6536,1.6536,1.6544,1.6584,1.6603,1.6632,1.6644,1.6644,1.6692,1.6686,1.6676,1.6657,1.6697,1.6715,1.6722,1.663,1.6629,1.6629,1.6628,0,0,1.6436,1.6466,1.6475,1.6488,1.6513,1.6535,1.6567,1.6595,1.6611,1.6632,1.666,1.6699,1.6691,1.6708,1.671,1.6733,1.6775,1.6721,1.6721,1.673,1.6829,1.6836,1.6844,1.6772,1.6773,1.6774,1.6827,0,1.6485,1.654,1.6544,1.6594,1.6621,1.6616,1.6644,1.6662,1.6671,1.6696,1.6706,1.6734,1.6721,1.6731,1.6753,1.6765,1.6795,1.6761,1.6798,1.6799,1.6792,1.6853,1.6861,1.691,1.6834,1.6835,1.6836,0,1.6549,1.6572,1.6625,1.6646,1.6657,1.6682,1.6709,1.6732,1.6754,1.6759,1.6778,1.6777,1.6811,1.679,1.6837,1.6814,1.683,1.6838,1.684,1.6843,1.682,1.6859,1.6925,1.6933,1.6847,1.6846,1.6845,0,1.6587,1.6631,1.6668,1.6679,1.6705,1.6723,1.6734,1.6755,1.6772,1.6795,1.6806,1.6834,1.6849,1.6871,1.6879,1.6863,1.6925,1.6905,1.6931,1.6931,1.6944,1.6943,1.7014,1.6954,1.6954,1.6954,1.6954,0,1.6641,1.6674,1.6685,1.6708,1.6744,1.6749,1.6785,1.6796,1.6814,1.684,1.6838,1.6862,1.687,1.6896,1.6902,1.694,1.6947,1.6953,1.6954,1.6953,1.6952,1.6963,1.696,1.6956,1.6956,1.6955,1.6955,0,1.6689,1.6697,1.6738,1.6759,1.6765,1.6791,1.681,1.6832,1.6841,1.6873,1.6881,1.6895,1.6926,1.6935,1.6972,1.6977,1.7021,1.7019,1.7014,1.7014,1.7039,1.7037,1.7119,1.7131,1.7063,1.7064,1.7064,0,1.6723,1.6748,1.6771,1.6788,1.68,1.6827,1.6845,1.6851,1.6869,1.6896,1.6915,1.6945,1.6969,1.7018,1.7032,1.7061,1.706,1.7087,1.7064,1.7062,1.706,1.7059,1.7061,1.7091,1.7092,1.7092,1.7093,0,1.6782,1.6786,1.681,1.6837,1.6857,1.6878,1.6899,1.6913,1.6922,1.6943,1.6974,1.6992,1.703,1.706,1.7089,1.7102,1.71,1.71,1.7108,1.7107,1.7102,1.7105,1.7025,1.7098,1.7098,1.7097,1.7097,1.7097,1.6824,1.6846,1.6867,1.6894,1.691,1.693,1.6952,1.6963,1.6989,1.7019,1.7022,1.7055,1.7077,1.7115,1.713,1.7157,1.7149,1.716,1.7163,1.7165,1.7167,1.7098,1.7162,1.7162,1.7162,1.7162,1.7162,0,1.6884,1.6897,1.6922,1.6951,1.6973,1.6968,1.699,1.7009,1.7038,1.7059,1.7082,1.7118,1.7147,1.7164,1.7193,1.7212,1.7211,1.7219,1.7218,1.7221,1.7172,1.7163,1.7219,1.7219,1.7219,1.7219,1.7219,1.7219,1.6918,1.6954,1.696,1.7005,1.7018,1.705,1.7064,1.7082,1.7098,1.7138,1.7162,1.7172,1.7191,1.7222,1.7249,1.7253,1.7264,1.7273,1.7276,1.723,1.7224,1.7219,1.721,1.7275,1.7275,1.7323,1.7323,1.7323]},{"header":{"parameterUnit":"m.s-1","parameterCategory":1,"la1":30.2991,"la2":30.254,"lo1":-89.0895,"lo2":-89.0444,"dy":0.0017,"dx":0.0017,"nx":28,"ny":28,"refTime":"2025-12-27T03:00:00:Z","depth":0,"parameterNumber":3,"parameterNumberName":"V-component_of_WINDS"},"data":[0,0,0,0,0,0,0,0,0,0,0,0,0,0,0,0,0,0,0,0,0,0,0,0,0,0,0,0,0,0,0,0,0,0,0,0,0,0,0,0,0,0,0,0,0,0,0,0,0,0,0,0,0,0,0,0,0,0,0.7212,0.7213,0,0.7234,0.7234,0.7235,0.7244,0.7244,0.7244,0.7244,0.7265,0.7265,0.7266,0,0,0,0,0,0,0,0,0,0,0,0,0,0.7178,0.7178,0.7212,0.7213,0.7213,0.7234,0.7234,0.7235,0.7244,0.7244,0.7244,0.7244,0.7265,0.7265,0.7266,0,0,0,0,0,0,0,0,0,0,0,0,0,0.7195,0.7179,0.7212,0.722,0.7221,0.7234,0.7234,0.7235,0.7244,0.7244,0.7244,0.7244,0.7264,0.7265,0.7266,0.7272,0,0,0.7269,0.7269,0,0,0,0,0,0,0,0,0.7194,0.7197,0.7219,0.722,0.7221,0.7236,0.723,0.7247,0.7244,0.7235,0.7244,0.7244,0.7255,0.7257,0.7261,0.7273,0.7274,0.7269,0.7269,0.727,0.727,0,0,0,0,0,0,0,0.7193,0.7196,0.7221,0.7219,0.722,0.7222,0.7225,0.7233,0.7245,0.7236,0.7237,0.7239,0.7256,0.726,0.7262,0.7275,0.7269,0.727,0.727,0.727,0.7293,0.7293,0,0,0,0,0,0,0.7191,0.7195,0.722,0.7222,0.7207,0.7223,0.7226,0.7231,0.7245,0.7247,0.7239,0.724,0.7259,0.7261,0.7262,0.727,0.727,0.7271,0.7271,0.7292,0.7293,0.7293,0,0,0,0,0,0,0.719,0.7193,0.7219,0.7208,0.7212,0.7223,0.723,0.7232,0.7236,0.7248,0.725,0.7242,0.7259,0.7261,0.727,0.7271,0.7271,0.7272,0.7292,0.7293,0.7293,0.7287,0,0,0,0,0,0,0.7189,0.7193,0.7196,0.7208,0.7212,0.7227,0.723,0.7232,0.7238,0.7238,0.725,0.7252,0.7259,0.7268,0.7271,0.7273,0.7272,0.7292,0.7292,0.7293,0.7287,0.7287,0.7287,0,0,0,0,0,0.7188,0.7193,0.7196,0.7199,0.7216,0.7227,0.7229,0.7237,0.7238,0.7241,0.7248,0.7252,0.7271,0.7269,0.7272,0.7274,0.7292,0.7292,0.7293,0.7287,0.7287,0.7287,0,0,0,0,0,0,0.718,0.7195,0.7198,0.7208,0.7216,0.7229,0.7232,0.7237,0.7245,0.7245,0.7254,0.7256,0.7264,0.727,0.7268,0.728,0.7282,0.7282,0.7277,0.7277,0.7276,0.7275,0.7273,0,0,0,0,0,0.7179,0.7187,0.7199,0.7207,0.7211,0.7221,0.7226,0.7231,0.724,0.7243,0.7251,0.7259,0.7267,0.7272,0.728,0.7288,0.729,0.729,0.729,0.729,0.729,0.7295,0.7295,0.7293,0.7293,0.7293,0,0,0.7178,0.7187,0.7191,0.7205,0.7212,0.722,0.7224,0.7232,0.7237,0.7244,0.7253,0.7259,0.7269,0.7277,0.7281,0.7282,0.7291,0.729,0.729,0.729,0.7295,0.7295,0.7295,0.7293,0.7293,0.7293,0,0,0.7179,0.7187,0.7194,0.7201,0.7212,0.7219,0.722,0.7232,0.7236,0.7245,0.7251,0.7257,0.7271,0.7277,0.7282,0.7286,0.729,0.7288,0.7287,0.7291,0.7291,0.7291,0.7292,0.7293,0.7288,0.7288,0.7288,0,0.7176,0.7189,0.7197,0.7205,0.721,0.7217,0.7224,0.723,0.7243,0.7247,0.7247,0.7264,0.7271,0.7281,0.7281,0.7285,0.7287,0.7287,0.729,0.7291,0.7291,0.7292,0.7293,0.7288,0.7288,0.7288,0.7288,0,0.7184,0.7192,0.7196,0.7209,0.7215,0.7222,0.7231,0.7236,0.724,0.7247,0.7256,0.7264,0.7274,0.7276,0.728,0.7286,0.7287,0.7289,0.729,0.7291,0.7292,0.7292,0.7288,0.7288,0.7288,0.7288,0,0,0.7182,0.7199,0.72,0.7206,0.7218,0.7224,0.7231,0.7241,0.7245,0.7253,0.7259,0.727,0.7272,0.7277,0.7282,0.7286,0.7288,0.7288,0.7288,0.7287,0.7295,0.7293,0.7294,0.729,0.729,0.7291,0.7294,0,0.7186,0.7199,0.7207,0.7217,0.7224,0.7231,0.7237,0.7245,0.725,0.7257,0.7263,0.7271,0.7273,0.7276,0.728,0.7287,0.7289,0.7287,0.7296,0.7296,0.7293,0.7294,0.7293,0.7295,0.7294,0.7294,0.7294,0,0.7192,0.72,0.7211,0.7222,0.7226,0.7231,0.724,0.7247,0.7255,0.7259,0.7265,0.727,0.7277,0.7278,0.7288,0.7286,0.7289,0.7293,0.7293,0.7295,0.7295,0.7296,0.7297,0.7297,0.7295,0.7295,0.7295,0,0.7189,0.7203,0.7212,0.7216,0.7229,0.7233,0.7238,0.7247,0.7252,0.726,0.7263,0.7271,0.7276,0.7282,0.7289,0.7289,0.7298,0.7299,0.7301,0.7301,0.7303,0.7303,0.7304,0.7305,0.7305,0.7305,0.7305,0,0.7192,0.7199,0.7211,0.7216,0.7223,0.7231,0.7238,0.7244,0.7251,0.7257,0.7263,0.7269,0.7277,0.7283,0.7289,0.7296,0.7298,0.7301,0.7302,0.73,0.73,0.7303,0.7304,0.7305,0.7305,0.7305,0.7305,0,0.7191,0.7199,0.7209,0.722,0.7223,0.7228,0.7238,0.7243,0.7249,0.7256,0.7258,0.7267,0.7275,0.7282,0.7292,0.7296,0.7303,0.7305,0.73,0.7301,0.7303,0.7302,0.7307,0.7308,0.7307,0.7307,0.7307,0,0.7193,0.7198,0.721,0.7215,0.722,0.7228,0.7233,0.7241,0.7246,0.7256,0.726,0.7268,0.7275,0.7286,0.7294,0.7301,0.7303,0.7304,0.7305,0.7303,0.7303,0.7303,0.7304,0.7304,0.7304,0.7304,0.7304,0,0.7195,0.7199,0.7207,0.7216,0.7222,0.7229,0.7237,0.724,0.7249,0.7254,0.7262,0.7268,0.7278,0.7286,0.7294,0.7299,0.7303,0.7304,0.7305,0.7303,0.7301,0.7302,0.73,0.7304,0.7304,0.7304,0.7304,0.7304,0.7196,0.72,0.721,0.7218,0.7224,0.7231,0.7236,0.7243,0.725,0.7259,0.7263,0.7271,0.7279,0.7291,0.7296,0.7302,0.7303,0.7304,0.7304,0.7304,0.7304,0.7299,0.7303,0.7303,0.7303,0.7303,0.7303,0,0.7198,0.7205,0.7212,0.7222,0.7229,0.7232,0.724,0.7245,0.7252,0.7259,0.7266,0.7275,0.7283,0.729,0.7298,0.7301,0.7303,0.7303,0.7303,0.7304,0.7303,0.7301,0.7302,0.7302,0.7302,0.7302,0.7302,0.7302,0.7201,0.7209,0.7214,0.7225,0.7231,0.7239,0.7244,0.725,0.7255,0.7265,0.7272,0.7277,0.7284,0.7292,0.7299,0.7301,0.7304,0.7303,0.7305,0.7304,0.7304,0.7304,0.7303,0.7303,0.7303,0.7306,0.7306,0.7306]}]]